This demonstration page uses our WeatherBlox Daily Observations layout. Learn more.

Left ArrowRight Arrow

Hourly Observations for June 6, 2021

Temp ( °F °C ) Dew Point ( °F °C ) Humidity (%) Winds ( mph kmh ) Pressure ( in mb ) Visibility ( mi km ) Precip ( " mm )
12:15 am 00:15 Clear 71 21.4 58 14.2 64 64 S 16 26 29.68 1005 10 16 N/A
12:35 am 00:35 Clear 70 21.2 57 14.1 64 64 S 16 26 29.68 1005 10 16 N/A
12:55 am 00:55 Clear 69 20.8 57 14 65 65 S 17 28 29.68 1005 10 16 N/A
1:15 am 01:15 Clear 69 20.5 57 14 66 66 S 16 26 29.68 1005 10 16 N/A
1:35 am 01:35 Clear 68 20 57 14 69 69 S 16 26 29.68 1005 10 16 N/A
1:55 am 01:55 Clear 67 19.6 57 13.9 70 70 S 16 26 29.69 1005 10 16 N/A
2:15 am 02:15 Clear 67 19.4 57 13.8 70 70 S 16 26 29.68 1005 10 16 N/A
2:35 am 02:35 Clear 66 19 56 13.6 71 71 S 14 22 29.68 1005 10 16 N/A
2:55 am 02:55 Clear 65 18.6 57 13.7 73 73 S 15 24 29.68 1005 10 16 N/A
3:15 am 03:15 Clear 65 18.2 56 13.6 75 75 S 14 22 29.69 1005 10 16 N/A
3:35 am 03:35 Clear 64 18 56 13.6 76 76 S 12 19 29.70 1006 10 16 N/A
3:55 am 03:55 Clear 64 17.9 56 13.5 76 76 S 14 22 29.69 1005 10 16 N/A
4:15 am 04:15 Clear 64 18 56 13.5 75 75 S 14 22 29.69 1005 10 16 N/A
4:35 am 04:35 Clear 65 18.1 56 13.5 75 75 S 14 22 29.69 1005 10 16 N/A
4:55 am 04:55 Clear 65 18.2 57 13.7 75 75 S 15 24 29.69 1005 10 16 N/A
5:15 am 05:15 Clear 65 18.1 57 13.8 76 76 S 14 22 29.68 1005 10 16 N/A
5:35 am 05:35 Clear 65 18.1 57 13.8 76 76 SSW 12 19 29.69 1005 10 16 N/A
5:55 am 05:55 Clear 64 17.7 57 13.8 78 78 S 13 20 29.68 1005 10 16 N/A
6:15 am 06:15 Sunny 64 17.6 57 14 80 80 SSE 13 20 29.67 1005 10 16 N/A
6:35 am 06:35 Sunny 64 17.7 57 14.1 80 80 S 15 24 29.67 1005 10 16 N/A
6:55 am 06:55 Sunny 64 17.9 58 14.3 80 80 S 14 22 29.68 1005 10 16 N/A
7:15 am 07:15 Sunny 65 18.2 58 14.7 80 80 S 14 22 29.69 1005 10 16 N/A
7:35 am 07:35 Sunny 65 18.6 59 15 80 80 S 14 22 29.67 1005 10 16 N/A
7:55 am 07:55 Sunny 66 19.1 59 15.2 78 78 SSW 16 26 29.68 1005 10 16 N/A
8:15 am 08:15 Sunny 67 19.7 60 15.5 77 77 S 17 28 29.66 1004 10 16 N/A
8:35 am 08:35 Sunny 69 20.6 61 15.9 75 75 SSW 16 26 29.65 1004 10 16 N/A
8:55 am 08:55 Sunny 70 21.1 61 16.1 73 73 SSW 18 30 29.64 1004 10 16 N/A
9:15 am 09:15 Sunny 71 21.8 62 16.4 72 72 SSW 20 31 29.64 1004 10 16 N/A
9:35 am 09:35 Sunny 73 22.7 62 16.9 70 70 S 17 28 29.63 1003 10 16 N/A
9:55 am 09:55 Sunny 74 23.6 63 17.2 67 67 SSW 17 28 29.62 1003 10 16 N/A
10:15 am 10:15 Sunny 75 24.1 63 17 65 65 S 18 30 29.62 1003 10 16 N/A
10:35 am 10:35 Sunny 77 24.8 63 17 62 62 SSW 21 33 29.61 1003 10 16 N/A
10:55 am 10:55 Sunny 78 25.5 62 16.8 59 59 SSW 16 26 29.60 1002 10 16 N/A
11:15 am 11:15 Sunny 79 26.2 63 17 57 57 SSW 22 35 29.59 1002 10 16 N/A
11:35 am 11:35 Sunny 80 26.8 62 16.9 55 55 S 21 33 29.60 1002 10 16 N/A
11:55 am 11:55 Sunny 81 27.4 63 17.1 53 53 SSW 18 30 29.59 1002 10 16 N/A
12:15 pm 12:15 Sunny 83 28.2 64 17.6 53 53 S 21 33 29.59 1002 10 16 N/A
12:35 pm 12:35 Sunny 83 28.6 64 17.7 52 52 S 20 31 29.58 1002 10 16 N/A
12:55 pm 12:55 Sunny 84 28.7 64 17.6 51 51 SW 16 26 29.59 1002 10 16 N/A
1:15 pm 13:15 Sunny 84 29.1 65 18.1 52 52 SSW 18 30 29.58 1002 10 16 N/A
1:35 pm 13:35 Sunny 85 29.4 65 18.1 51 51 SSW 17 28 29.57 1001 10 16 N/A
1:55 pm 13:55 Sunny 85 29.5 65 18.1 50 50 SSW 14 22 29.56 1001 10 16 N/A
2:15 pm 14:15 Sunny 85 29.7 65 18.1 50 50 SSW 17 28 29.56 1001 10 16 N/A
2:35 pm 14:35 Sunny 86 30.1 65 18.1 49 49 S 20 31 29.56 1001 10 16 N/A
2:55 pm 14:55 Sunny 87 30.3 64 18 48 48 S 16 26 29.56 1001 10 16 N/A
3:15 pm 15:15 Sunny 87 30.6 65 18.6 49 49 S 13 20 29.55 1001 10 16 N/A
3:35 pm 15:35 Sunny 88 31 64 18 46 46 S 15 24 29.53 1000 10 16 N/A
3:55 pm 15:55 Sunny 88 30.9 64 18 46 46 SSW 16 26 29.53 1000 10 16 N/A
4:15 pm 16:15 Sunny 88 31 65 18.4 47 47 S 20 31 29.53 1000 10 16 N/A
4:35 pm 16:35 Sunny 88 31 65 18.2 46 46 S 12 19 29.53 1000 10 16 N/A
4:55 pm 16:55 Partly Cloudy 88 31 65 18.3 47 47 S 13 20 29.53 1000 10 16 N/A
5:15 pm 17:15 Partly Cloudy 88 30.9 65 18.3 47 47 S 18 30 29.53 1000 10 16 N/A
5:35 pm 17:35 Sunny 88 31.1 65 18.4 47 47 S 10 17 29.53 1000 10 16 N/A
5:55 pm 17:55 Sunny 87 30.8 65 18.4 48 48 S 13 20 29.53 1000 10 16 N/A
6:15 pm 18:15 Sunny 87 30.5 65 18.1 47 47 S 14 22 29.54 1000 10 16 N/A
6:35 pm 18:35 Sunny 87 30.5 65 18.5 49 49 S 13 20 29.54 1000 10 16 N/A
6:55 pm 18:55 Sunny 86 30 66 19.1 52 52 S 13 20 29.54 1000 10 16 N/A
7:15 pm 19:15 Sunny 85 29.6 66 18.9 53 53 S 12 19 29.54 1000 10 16 N/A
7:35 pm 19:35 Sunny 84 29.1 66 18.8 54 54 SSE 14 22 29.55 1001 10 16 N/A
7:55 pm 19:55 Sunny 84 28.7 66 18.9 55 55 S 14 22 29.57 1001 10 16 N/A
8:15 pm 20:15 Sunny 82 28 66 18.8 57 57 SSE 13 20 29.58 1002 10 16 N/A
8:35 pm 20:35 Sunny 81 27.4 65 18.5 58 58 SSE 13 20 29.59 1002 10 16 N/A
8:55 pm 20:55 Sunny 80 26.5 65 18.2 60 60 SSE 10 17 29.61 1003 10 16 N/A
9:15 pm 21:15 Clear 79 26 64 18 61 61 SSE 9 15 29.61 1003 10 16 N/A
9:35 pm 21:35 Clear 77 25.2 64 17.9 64 64 SSE 9 15 29.63 1003 10 16 N/A
9:55 pm 21:55 Clear 77 25.1 64 17.7 64 64 SSE 10 17 29.64 1004 10 16 N/A
10:15 pm 22:15 Clear 76 24.7 65 18.3 68 68 SSE 9 15 29.65 1004 10 16 N/A
10:35 pm 22:35 Clear 76 24.5 65 18.5 69 69 SSE 12 19 29.67 1005 10 16 N/A
10:55 pm 22:55 Clear 76 24.2 64 18 68 68 SSE 13 20 29.69 1005 10 16 N/A
11:15 pm 23:15 Clear 75 23.8 64 17.7 69 69 SSE 15 24 29.69 1005 10 16 N/A
11:35 pm 23:35 Clear 74 23.5 64 17.5 69 69 SSE 12 19 29.69 1006 10 16 N/A
11:55 pm 23:55 Clear 74 23.1 63 17.4 70 70 SSE 12 19 29.70 1006 10 16 N/A

Powered by AerisWeather